Theta_e
345 344 344 343 344 343 344 344 343 344 343 343 343 343 342 340 338 334 334 339 340 341 339 339 338 339 338 336 329 322 321 320 323 318 318 328 330 333 334 332 333 334 333
343 345 344 345 345 343 345 343 343 344 342 340 340 340 341 338 337 338 332 337 339 339 338 336 336 336 335 332 323 320 322 325 325 325 320 323 329 331 331 330 332 334 334
343 345 344 343 344 343 344 344 342 340 338 338 338 338 337 332 337 338 337 339 341 341 336 335 334 334 334 331 322 322 328 328 327 326 325 325 326 334 334 329 330 331 332
342 344 344 344 343 343 343 342 341 338 339 336 336 335 330 336 339 338 338 340 341 339 334 334 333 333 333 328 321 326 330 330 333 333 328 333 332 333 335 334 333 335 332
341 343 344 345 342 344 342 341 340 338 335 333 332 330 334 341 340 340 340 339 339 331 330 331 331 332 332 325 322 329 330 331 331 332 333 334 335 337 338 337 334 335 335
342 342 343 342 341 343 341 341 339 337 335 334 329 331 339 340 339 340 341 339 334 330 328 328 331 332 328 324 325 330 330 330 331 331 332 334 336 336 337 335 334 335 335
347 344 343 340 342 342 341 341 339 338 335 334 329 331 338 339 339 338 338 335 331 328 324 325 329 328 327 326 325 329 330 330 330 330 331 333 334 333 333 333 332 333 334
347 343 339 339 343 343 342 340 339 337 336 334 330 327 337 337 335 335 335 333 331 327 324 326 329 327 326 326 326 329 329 330 331 330 330 329 332 332 330 330 330 331 330
347 343 339 340 342 342 340 340 339 337 336 333 332 323 335 334 334 333 333 333 332 326 324 326 326 326 326 326 326 326 330 329 331 330 329 328 330 330 329 328 327 327 326
346 343 339 340 340 341 340 339 339 337 336 336 333 328 325 332 332 329 331 332 330 325 324 326 327 326 324 323 323 326 329 329 329 329 329 328 331 330 328 327 326 324 323
344 342 339 339 338 338 339 339 338 338 337 335 332 332 321 323 328 328 328 331 328 325 326 328 327 325 323 322 324 325 327 327 328 328 328 327 329 329 327 325 324 323 321
341 342 341 340 337 338 339 338 337 337 336 334 333 333 321 320 318 319 329 326 323 326 329 329 328 325 322 321 323 324 325 324 325 326 327 325 328 328 326 325 323 320 319
342 341 341 341 340 340 340 340 338 337 336 332 334 334 322 328 328 325 326 327 323 328 330 330 329 325 323 323 321 321 322 322 323 324 325 325 325 326 325 324 322 319 318
343 343 342 341 341 341 340 339 336 332 331 331 335 335 324 328 329 330 328 328 323 328 330 329 329 328 321 320 323 321 321 321 319 323 323 324 323 324 323 322 320 318 317
340 343 342 341 339 338 338 335 335 333 332 335 335 337 332 329 329 329 330 328 325 323 327 329 330 329 323 321 319 319 319 319 318 318 321 323 322 322 322 320 319 317 317
342 341 341 342 341 339 336 335 334 333 332 337 337 338 335 331 331 331 332 330 329 327 328 330 331 331 328 323 322 319 318 318 317 316 320 321 322 321 320 320 318 317 317
341 341 341 339 342 341 340 336 335 334 335 338 337 336 334 332 331 333 333 332 331 330 329 331 331 332 332 324 323 319 317 316 316 315 319 320 321 321 320 318 318 317 316
335 340 341 342 341 339 342 341 338 337 336 337 337 337 336 335 332 332 333 333 333 331 329 329 330 332 330 326 323 319 316 315 315 314 315 318 319 319 319 316 318 316 316
321 323 331 342 342 341 339 341 342 339 339 340 339 338 338 337 337 332 331 332 332 332 332 331 329 329 329 327 323 319 316 314 314 314 313 315 317 317 316 314 316 314 314
317 318 319 320 333 340 340 341 341 341 340 339 339 339 338 338 338 336 334 332 331 332 332 332 331 329 329 328 323 319 317 314 313 313 313 313 315 316 315 314 313 312 311
314 315 316 317 317 317 321 331 340 341 341 339 338 340 339 339 338 337 336 336 333 331 331 331 332 331 330 328 322 318 315 315 312 312 313 312 313 314 314 313 312 311 309
314 313 313 313 314 315 316 318 319 333 339 339 339 338 337 336 337 338 336 336 335 332 331 331 331 331 330 328 321 312 309 310 310 310 311 311 311 312 313 312 311 310 309
316 315 316 315 314 313 313 314 315 315 323 332 336 337 337 335 332 331 336 337 336 335 332 331 331 331 328 327 324 318 310 310 308 311 310 309 310 310 311 311 310 309 308
316 316 316 316 315 315 315 313 312 312 313 314 317 322 329 335 334 335 333 332 332 334 334 333 332 330 329 325 321 320 318 315 309 309 307 308 308 309 309 310 309 308 306
316 315 315 315 314 314 315 315 315 314 312 312 313 314 316 318 327 334 334 333 331 331 330 332 333 332 330 328 324 321 316 316 312 306 307 305 306 306 308 308 308 307 306
314 313 313 314 314 314 313 314 314 315 315 315 315 314 314 315 318 327 330 330 331 332 330 329 328 329 331 329 326 322 320 318 316 307 307 305 305 305 305 307 306 306 305
Wind_Speed
26 24 22 19 19 18 17 15 13 12 11 12 12 12 11 10 9 9 10 11 11 14 14 14 14 14 15 14 13 14 14 16 17 18 14 14 14 14 17 12 11 13 12
30 25 23 21 20 18 17 16 15 15 12 10 8 7 9 8 8 9 9 11 13 15 15 15 14 14 13 13 13 14 16 17 17 18 16 15 15 13 12 12 12 12 11
31 26 23 21 20 18 17 17 17 13 10 9 8 5 7 8 9 9 10 11 15 16 15 14 14 13 12 12 13 16 16 15 12 11 13 14 13 12 11 11 12 11 10
32 26 23 19 18 18 18 17 16 10 8 7 7 8 9 10 10 12 12 13 17 15 14 13 13 14 13 12 15 17 15 14 15 12 8 10 10 10 9 8 10 9 8
28 26 24 21 18 19 18 16 14 9 9 9 10 11 13 13 14 13 14 16 16 13 13 13 14 14 13 14 16 16 14 13 11 13 11 10 11 13 18 17 12 8 9
28 23 22 19 18 17 16 18 13 9 8 9 10 13 13 14 16 16 17 17 15 13 12 13 14 13 13 12 14 14 15 13 13 10 11 13 16 14 16 18 15 17 15
28 23 21 18 19 18 17 14 12 10 8 6 8 13 13 13 14 15 16 15 12 10 10 12 12 12 11 12 12 13 12 12 12 8 11 12 12 11 12 12 11 11 13
30 24 20 20 19 19 15 14 10 11 9 5 7 12 13 11 12 13 13 12 9 8 9 11 11 10 10 10 11 13 10 9 10 7 8 10 10 11 10 11 11 11 11
25 23 23 21 19 17 15 12 12 11 10 8 6 10 15 13 10 13 12 11 8 8 9 11 10 9 8 8 10 12 8 8 11 8 7 6 8 10 10 10 11 10 11
22 19 22 21 19 18 15 13 12 11 12 9 7 7 12 14 13 11 12 11 10 9 10 10 9 8 7 8 10 13 11 11 8 6 6 8 9 9 9 9 9 9 10
24 21 23 19 17 17 16 15 13 11 12 11 9 7 11 12 12 10 13 13 11 11 11 10 8 7 6 7 9 13 11 8 8 7 7 9 8 9 8 8 8 8 9
22 23 21 18 19 20 20 19 17 15 14 13 13 10 12 11 11 11 12 12 12 13 12 10 8 7 7 7 8 11 9 5 6 8 9 8 8 8 7 8 7 8 9
14 16 25 20 17 21 23 21 19 18 16 16 13 11 13 14 12 12 12 12 13 14 14 13 11 10 10 9 9 11 8 7 6 7 8 8 7 8 9 9 8 9 9
11 9 13 21 20 21 21 20 14 15 16 19 18 14 15 18 18 16 14 13 15 16 15 14 12 11 12 10 11 10 10 10 10 10 10 9 8 9 11 11 11 10 9
14 13 15 16 18 21 20 17 15 16 16 15 22 19 15 18 23 20 15 14 14 17 16 15 13 12 14 12 11 11 12 11 13 11 12 11 10 9 11 12 12 11 11
18 13 17 18 17 15 21 19 18 22 20 17 18 22 23 17 21 23 18 17 16 16 17 18 17 16 16 16 15 15 14 13 14 13 14 14 13 12 12 12 13 13 12
21 19 17 21 25 21 18 18 17 18 16 20 20 16 22 21 21 23 21 21 21 19 17 20 20 21 21 22 18 18 18 16 16 18 16 16 16 15 15 15 15 14 14
14 24 20 21 20 25 24 19 21 18 19 16 19 20 22 24 25 24 25 24 21 24 23 22 21 22 24 24 21 21 20 19 18 19 18 18 18 18 18 18 19 17 17
7 8 11 21 21 16 20 25 21 25 23 20 19 20 23 25 26 29 29 28 27 25 27 28 28 27 25 25 23 23 22 23 23 21 21 22 21 21 20 20 23 21 20
5 2 2 5 16 18 15 18 23 23 24 28 24 25 25 23 27 31 32 33 30 29 29 28 32 32 30 28 25 24 25 24 26 26 25 25 26 24 23 22 26 26 24
4 0 1 3 3 2 7 17 25 27 29 26 28 31 28 25 24 30 35 34 34 33 34 35 31 32 32 29 20 20 23 24 27 30 28 27 28 28 26 26 26 27 27
8 4 4 6 9 7 8 8 4 11 21 29 29 31 29 30 30 22 27 34 34 37 35 35 36 33 34 31 18 4 2 10 26 31 30 31 32 31 31 30 30 28 28
9 9 8 7 7 10 13 14 13 9 5 10 17 22 24 25 26 29 27 25 32 35 37 37 37 38 28 32 34 15 2 6 3 22 38 36 36 35 35 35 32 30 29
7 5 5 5 7 6 8 8 9 11 11 13 12 13 19 24 24 21 21 26 32 29 32 36 35 36 36 26 29 37 25 6 4 2 12 33 38 35 35 35 34 31 30
5 4 6 6 6 8 6 7 8 9 11 13 15 17 14 14 18 24 22 22 23 25 28 30 30 29 35 30 31 26 31 21 11 3 4 6 27 36 34 33 34 33 31
6 5 6 7 7 7 8 6 7 8 9 10 11 13 15 16 13 14 22 23 25 24 24 25 29 29 28 31 27 31 28 16 22 9 3 4 6 13 27 27 30 33 30
Wind_Direction
153 156 155 151 145 138 133 129 125 122 120 119 114 108 99 91 91 100 110 103 106 97 94 94 92 93 94 94 94 94 89 86 80 74 76 83 82 78 75 93 107 95 85
156 155 154 150 144 139 135 134 128 126 117 104 101 105 97 91 94 102 113 115 114 108 100 97 95 95 96 97 97 93 94 94 88 80 75 76 85 86 87 88 96 89 85
156 154 156 154 147 142 143 136 131 131 132 138 124 125 103 94 104 115 113 118 125 113 103 99 97 96 97 99 99 101 100 92 87 80 78 74 80 85 83 88 90 86 83
158 152 151 150 154 150 145 141 136 142 144 124 138 130 107 102 107 123 122 121 126 115 105 103 101 99 96 99 105 107 100 84 83 85 115 83 80 84 72 99 98 82 85
154 157 152 158 157 151 146 143 138 147 113 101 118 120 118 102 109 119 125 130 130 120 107 105 105 102 100 101 109 111 97 83 90 92 108 82 89 91 73 93 92 82 80
149 158 157 167 160 152 145 144 145 143 120 104 118 125 123 116 118 122 124 136 134 119 109 112 113 110 105 106 113 111 97 77 108 95 101 99 86 87 81 85 83 79 83
153 154 161 161 154 147 146 151 148 146 124 113 116 133 133 130 123 126 131 141 127 117 116 121 120 116 110 108 118 118 107 94 110 96 103 106 95 89 82 84 83 83 77
153 154 158 160 157 157 155 157 163 150 148 148 130 142 143 148 144 143 145 140 132 130 129 131 129 126 123 120 122 133 120 93 123 121 109 105 102 92 85 86 83 79 79
150 154 157 158 158 159 161 165 164 162 164 165 152 155 157 165 172 164 159 160 162 149 145 142 138 135 133 134 137 144 128 98 135 130 120 109 105 100 95 88 92 86 81
146 151 156 155 157 160 168 174 179 174 173 189 182 173 176 180 187 180 179 173 169 163 158 154 152 151 149 147 148 149 133 120 136 153 150 134 128 120 110 101 97 96 89
149 151 162 166 171 171 173 182 189 194 190 189 191 192 182 186 193 197 182 178 175 173 171 170 168 167 162 159 153 154 146 147 167 192 168 154 141 130 126 122 115 109 105
156 163 165 168 176 179 185 192 196 202 203 199 196 202 193 182 179 177 181 183 186 180 182 184 186 182 174 166 165 163 162 154 170 180 173 174 153 146 144 143 137 127 120
158 162 180 178 171 182 192 197 202 213 210 201 204 215 197 188 184 187 187 196 194 190 194 200 199 197 184 168 168 177 182 182 193 213 196 201 187 164 156 156 152 146 138
190 176 153 190 189 190 192 191 202 204 205 206 206 208 196 197 205 204 211 213 210 209 211 217 221 215 200 204 202 199 202 208 223 216 218 221 221 175 165 166 164 159 153
200 204 184 173 177 186 202 202 209 205 207 210 212 210 203 208 209 211 223 223 220 217 221 224 225 228 214 214 209 221 218 228 223 222 220 224 227 210 181 176 173 170 166
192 198 215 200 191 188 198 205 212 216 219 215 212 218 211 213 218 219 227 227 226 222 223 226 230 232 219 218 229 226 224 223 224 230 216 223 223 226 200 190 185 182 180
205 213 206 208 207 203 203 208 212 217 223 214 211 215 215 219 224 224 226 231 229 225 228 229 234 235 231 217 231 226 230 227 222 230 223 221 223 227 221 200 197 194 191
211 219 220 214 214 215 212 212 220 221 220 220 223 226 227 230 229 229 230 231 237 231 223 224 229 227 220 222 227 226 230 228 226 231 232 227 224 225 225 213 204 202 200
238 181 194 222 231 225 219 220 220 226 225 221 223 234 238 239 235 233 234 235 233 234 230 228 228 230 225 223 224 225 228 231 231 225 229 231 228 229 231 221 212 208 205
122 116 103 161 223 227 229 224 233 227 230 229 230 228 232 242 243 236 236 240 237 234 236 233 230 229 233 232 223 225 231 234 234 231 227 229 230 228 228 227 220 219 214
86 134 313 292 290 263 216 220 230 228 232 242 236 235 234 234 240 245 241 242 239 237 237 238 238 231 229 229 216 226 233 239 233 235 234 230 228 230 228 226 226 226 222
65 30 312 289 279 277 268 269 268 246 242 247 247 242 244 249 250 249 248 244 246 239 239 239 239 231 229 223 203 176 236 250 235 232 230 231 230 227 230 227 224 228 226
43 24 19 8 329 295 283 275 275 284 258 273 262 263 261 261 265 263 251 252 248 246 242 243 244 240 230 220 213 195 147 225 216 232 232 232 231 229 227 230 231 227 227
53 20 1 354 6 359 346 322 304 297 299 289 285 287 281 273 272 265 268 262 259 259 255 251 253 244 234 225 219 220 225 176 194 278 234 233 232 232 233 227 231 231 230
72 29 3 353 353 4 357 344 340 324 304 292 284 286 292 292 283 272 266 262 266 265 265 258 253 251 244 234 221 223 230 236 240 172 247 246 228 229 231 233 230 233 234
82 47 23 11 359 347 354 360 360 345 318 319 324 318 307 302 309 295 270 274 271 268 268 269 269 266 259 245 236 226 222 222 233 213 229 254 251 228 229 229 231 230 230